Location: Unspecified
(48.7670°N, 0.0000°E)
Time: 17:05:55
(UTC+00:00)

DELFI C3 - Visible Passes

Search period start: 18 July 2019 00:00
Search period end: 28 July 2019 00:00
Orbit: 536 x 554 km, 97.5° (Epoch: 17 July)

Date Brightness Start Highest point End Pass type
(mag) Time Alt. Az. Time Alt. Az. Time Alt. Az.
18 Jul ? 21:42:42 10° W 21:43:29 10° W 21:44:16 10° WNW visible
19 Jul ? 21:36:06 10° WSW 21:37:41 12° W 21:39:16 10° WNW visible
20 Jul ? 21:29:49 10° WSW 21:31:53 14° W 21:33:57 10° WNW visible
21 Jul ? 21:23:40 10° SW 21:26:05 16° W 21:28:32 10° NW visible
22 Jul ? 21:17:35 10° SW 21:20:18 18° W 21:23:02 10° NW visible
23 Jul ? 21:11:33 10° SW 21:14:30 21° W 21:17:29 10° NW visible
24 Jul ? 21:05:34 10° SSW 21:08:43 23° W 21:11:54 10° NW visible
25 Jul ? 20:59:37 10° SSW 21:02:57 27° W 21:06:17 10° NW visible
26 Jul ? 20:53:42 10° SSW 20:57:10 30° W 21:00:40 10° NNW visible
27 Jul ? 20:47:49 10° SSW 20:51:23 35° W 20:55:01 10° NNW visible
